* Astronomy

Members Login
Username 
 
Password 
    Remember Me  
Post Info TOPIC: Asteroid 2010 KU7


L

Posts: 131433
Date:
RE: Asteroid 2010 KU7
Permalink  
 


Update
The 95 - 210 metre wide asteroid 2010 KU7 will make a close pass (59.3 lunar distances, 0.1524 AU), travelling at 8.18 km/second, to the Earth-Moon system on the 5th July, 2010 @ 01:16 UT

See more

The Lunar Distance (LD), the distance between Earth and the Moon, equals 384,401 km, (or 0.00256 AU).


__________________


L

Posts: 131433
Date:
Permalink  
 

The 95 - 210 metre wide asteroid 2010 KU7 will make a close pass (59.7 lunar distances, 0.1534 AU), travelling at 8.29 km/second, to the Earth-Moon system on the 4th July, 2010 @ 19:23 UT

See more

The Lunar Distance (LD), the distance between Earth and the Moon, equals 384,401 km, (or 0.00256 AU).


__________________


L

Posts: 131433
Date:
Permalink  
 

Orbital elements:
2010 KU7 Earth MOID = 0.0506 AU
Epoch 2010 July 23.0 TT = JDT 2455400.5 MPC
M 17.13732 (2000.0) P Q
n 0.45118492 Peri. 215.74903 -0.25884421 +0.96300221
a 1.6835771 Node 39.40355 -0.85648563 -0.19292235
e 0.3872505 Incl. 6.78629 -0.44657815 -0.18816935
P 2.18 H 22.2 G 0.15 U 9

MPEC 2010 - K26


__________________
Page 1 of 1  sorted by
 
Quick Reply

Please log in to post quick replies.



Create your own FREE Forum
Report Abuse
Powered by ActiveBoard